Torna al catalogo

ATLAS 5 CENTAUR DEB

AttivoHEO
NORAD 43967·DEBRIS·🇺🇸 United States

Lanciato Sep 17, 2014 da Cape Canaveral Space Force Station

Loading…

Prossimi Passaggi (prossime 24 ore)

TLE

AggiornatoSource: Space-Track

Epoca: Sep 12, 2026, 19:21 UTC

1 43967U 14055W   26255.80674096 -.00000112  00000-0  00000-0 0  9999
2 43967  20.4004 125.8661 4989751 195.3453 141.1636  1.82855645 53603

Traccia ATLAS 5 CENTAUR DEB in tempo reale con AllMySat

Download on the App Store